Weather Roundup
Issued by NWS Corpus Christi, TX

Home | Current Version | Previous Version | Text Only | Print | Product List | Glossary On
Versions: 1 2 3 4 5 6 7 8 9 10 11 12 13 14 15 16 17 18 19 20 21 22 23 24 25 26 27 28 29 30 31 32 33 34 35 36 37 38 39 40 41 42 43 44 45 46 47 48 49 50
000
ASUS44 KCRP 272010
HRRCRP

SOUTH TEXAS REGIONAL WEATHER ROUNDUP
NATIONAL WEATHER SERVICE CORPUS CHRISTI TX
300 PM CDT THU AUG 27 2015


TXZ229>244-272100-
...CORPUS CHRISTI AREA OBSERVATIONS...

CITY           SKY/WX    TMP DP  RH WIND       PRES   REMARKS
CORPUS CHRISTI PTSUNNY   92  61  35 SE9G21    30.02F HX  92
NAS CORPUS CHR MOSUNNY   89  67  47 SE10      30.02F HX  92
ROCKPORT       MOSUNNY   89  68  49 SE7       30.02F HX  93
KINGSVILLE NAS PTSUNNY   95  65  37 NE15G22   30.00F HX  97
ALICE          SUNNY     94  58  29 VRB5      30.00F HX  93
FALFURRIAS     SUNNY     93  60  32 NE8       30.01F HX  93
$$

...VICTORIA AREA OBSERVATIONS...

CITY           SKY/WX    TMP DP  RH WIND       PRES   REMARKS
VICTORIA       PTSUNNY   93  61  34 CALM      30.03F HX  93
BEEVILLE       FAIR      92  62  36 CALM      30.03F HX  92
PLEASANTON     SUNNY     97  61  30 N6        30.03F HX  97
SAN ANTONIO    MOSUNNY   94  66  39 S9        30.04F HX  97
$$

...LAREDO AREA OBSERVATIONS...

CITY           SKY/WX    TMP DP  RH WIND       PRES   REMARKS
LAREDO         MOSUNNY   99  60  27 N10G18    30.02F HX  99
COTULLA        SUNNY     97  64  33 NE8       30.02F HX  99
DEL RIO        MOSUNNY   98  64  32 S13       30.01F HX 100
MCALLEN        SUNNY     95  65  37 NE7       30.01F HX  97
HEBBRONVILLE   NOT AVBL
$$

...OTHER TEXAS OBSERVATIONS...

CITY           SKY/WX    TMP DP  RH WIND       PRES   REMARKS
BROWNSVILLE    SUNNY     90  67  46 NE12      30.01F HX  93
HOUSTON        PTSUNNY   91  63  39 VRB3      30.02F HX  92
COL. STATION   PTSUNNY   91  61  36 VRB5      30.03F HX  91
AUSTIN         MOSUNNY   93  60  33 CALM      30.02F HX  93
WACO           SUNNY     95  60  31 VRB5      30.02F HX  95
FORT WORTH     PTSUNNY   95  63  34 E9        30.02F HX  96
WICHITA FALLS  MOSUNNY   96  64  34 SE7       30.01F HX  98
LUBBOCK        MOSUNNY   94  50  22 SW9G21    30.11F HX  91
EL PASO        PTSUNNY   91  53  27 SW3       30.13F
$$

...MARINE OBSERVATIONS...

STATION/POSITION TIME  SKY/WX   TEMP    WIND        PRES    VSBY  WAVE   SWELL
                                AIR SEA DIR/SP/G                  HT/PER HT/PER
                 (UTC)          (F)     (DEG/KT/KT) (MB)    (MI)  (FT/S) (FT/S)
PORT ARANSAS     2000            83 87   90/  5/  7 1017.9F
BUOY 90 E PORT A 1950            83 86   10/  8/ 10 1016.6F         2/ 5   2/ 5
BUOY 45 SE BAFFI 1950            83 85   80/  8/ 10 1016.4F         3/ 4   2/ 4
BUOY 200 E PT IS 1950            84 86   60/  8/ 14 1015.6F         2/ 5   2/ 5
BUOY 15 E GALVES 1950            83 86   80/  4/  6 1016.3F         1/ 5
$$



USA.gov is the U.S. government's official web portal to all federal, state and local government web resources and services.